Regional Weather Roundup
Issued by NWS

Home | Current Version | Previous Version | Text Only | Print | Product List | Glossary On
Versions: 1 2 3 4 5 6 7 8 9 10 11 12 13 14 15 16 17 18 19 20 21 22 23 24 25 26 27 28 29 30 31 32 33 34 35 36 37 38 39 40 41 42 43 44 45 46 47 48 49 50
000
ASUS44 KJAN 100410
RWRMS

MISSISSIPPI HOURLY WEATHER ROUNDUP
NATIONAL WEATHER SERVICE JACKSON MS
1000 PM CST TUE FEB 09 2016

NOTE: "FAIR: INDICATES FEW OR NO CLOUDS BELOW 12,000 FEET WITH NO
SIGNIFICANT WEATHER AND/OR OBSTRUCTIONS TO VISIBILITY.

MSZ001>002-007>008-010>013-018>021-025>028-034>036-100500-
NORTHWEST MISSISSIPPI

CITY           SKY/WX    TMP DP  RH WIND       PRES   REMARKS
CLEVELAND      FAIR      31  22  67 N5        30.21S WCI  26
GREENWOOD      CLEAR     28  16  60 N5        30.20R WCI  23
GREENVILLE     CLEAR     32  18  56 N6        30.21R WCI  26
OLIVE BRANCH   CLEAR     28  14  54 NW6       30.16S WCI  22
OXFORD         FAIR      27  10  50 NW5       30.18S WCI  21
TUNICA         CLEAR     27  18  69 W5        30.20S WCI  21
$$

MSZ003>006-009-014>017-022>024-029>033-037>039-100500-
NORTHEAST MISSISSIPPI

CITY           SKY/WX    TMP DP  RH WIND       PRES   REMARKS
COLUMBUS AFB   CLEAR     30  15  53 NW8       30.17R WCI  22
CORINTH        FAIR      25  16  68 CALM      30.14S
GOLDN TRIANGLE CLEAR     30  12  47 N8        30.16S WCI  23
STARKVILLE     FAIR      32  16  51 N6        30.18R WCI  26
TUPELO         PTCLDY    28  12  51 CALM      30.17R
$$

MSZ040-058-100500-
CENTRAL MISSISSIPPI

CITY           SKY/WX    TMP DP  RH WIND       PRES   REMARKS
JACKSON INTL   CLEAR     40  18  41 N15       30.16R WCI  32
JACKSON HAWKNS CLEAR     41  13  31 N5        30.18R
MERIDIAN KEY   CLEAR     36  19  50 N10       30.16R WCI  28
MERIDIAN NAS   CLEAR     35  16  45 N9        30.17R WCI  28
VICKSBURG      CLEAR     44  19  36 NW8       30.20R
$$

MSZ059>079-100500-
SOUTH MISSISSIPPI

CITY           SKY/WX    TMP DP  RH WIND       PRES   REMARKS
BROOKHAVEN     FAIR      43  21  42 W6        30.18R
HATTIESBURG    CLEAR     38  22  52 W5        30.17R WCI  34
MCCOMB         CLEAR     41  22  46 CALM      30.18R
NATCHEZ        CLEAR     46  19  34 NW12      30.19R
PINE BELT      CLEAR     34  21  60 W3        30.16R
$$

MSZ080>082-100500-
COASTAL MISSISSIPPI

CITY           SKY/WX    TMP DP  RH WIND       PRES   REMARKS
BILOXI         CLEAR     41  29  62 W1        30.17R
PASCAGOULA     CLEAR     35  27  72 CALM      30.18R
GULFPORT       CLEAR     40  23  50 W3        30.18R
$$



USA.gov is the U.S. government's official web portal to all federal, state and local government web resources and services.